Previsão horária em Almásfüzitõ

Hoje, 22 Janeiro, Sexta-feira

Tempo Temperatura Precipitação Vento Pressão Humidade
00:00 +6°C° 0 mm 5 m/s 746 mmHg 83%
01:00 +5°C° 0 mm 6 m/s 745 mmHg 83%
02:00 +5°C° 0 mm 6 m/s 745 mmHg 83%
03:00 +5°C° 0 mm 6 m/s 744 mmHg 82%
04:00 +5°C° 0 mm 7 m/s 744 mmHg 82%
05:00 +5°C° 0 mm 7 m/s 743 mmHg 82%
06:00 +6°C° 0 mm 7 m/s 743 mmHg 81%
07:00 +6°C° 0 mm 7 m/s 743 mmHg 81%
08:00 +6°C° 0 mm 7 m/s 743 mmHg 80%
09:00 +8°C° 0 mm 6 m/s 743 mmHg 79%
10:00 +9°C° 0 mm 5 m/s 743 mmHg 78%
11:00 +9°C° 0.1 mm 5 m/s 743 mmHg 78%
12:00 +9°C° 0.1 mm 5 m/s 742 mmHg 78%
13:00 +9°C° 0.1 mm 5 m/s 742 mmHg 78%
14:00 +9°C° 0 mm 6 m/s 741 mmHg 79%
15:00 +9°C° 0 mm 6 m/s 741 mmHg 79%
16:00 +9°C° 0 mm 6 m/s 741 mmHg 80%
17:00 +9°C° 0.1 mm 6 m/s 740 mmHg 82%
18:00 +8°C° 0.1 mm 6 m/s 740 mmHg 84%
19:00 +8°C° 0.1 mm 6 m/s 740 mmHg 86%
20:00 +7°C° 0 mm 6 m/s 740 mmHg 87%
21:00 +7°C° 0 mm 6 m/s 740 mmHg 87%
22:00 +7°C° 0 mm 6 m/s 740 mmHg 88%
23:00 +7°C° 0 mm 6 m/s 739 mmHg 87%

Amanhã, 23 Janeiro, Sábado

Tempo Temperatura Precipitação Vento Pressão Humidade
00:00 +5°C° 0 mm 6 m/s 739 mmHg 87%
01:00 +5°C° 0 mm 6 m/s 738 mmHg 86%
02:00 +7°C° 0.1 mm 6 m/s 738 mmHg 86%
03:00 +6°C° 0.1 mm 7 m/s 738 mmHg 85%
04:00 +6°C° 0.1 mm 7 m/s 737 mmHg 85%
05:00 +6°C° 0 mm 7 m/s 737 mmHg 83%
06:00 +8°C° 0 mm 7 m/s 737 mmHg 82%
07:00 +8°C° 0 mm 7 m/s 737 mmHg 80%
08:00 +8°C° 0 mm 7 m/s 737 mmHg 80%
09:00 +8°C° 0 mm 6 m/s 737 mmHg 79%
10:00 +8°C° 0 mm 6 m/s 737 mmHg 78%
11:00 +8°C° 0.2 mm 6 m/s 737 mmHg 79%
12:00 +8°C° 0.2 mm 5 m/s 737 mmHg 81%
13:00 +8°C° 0.2 mm 5 m/s 737 mmHg 82%
14:00 +7°C° 0.7 mm 4 m/s 737 mmHg 83%
15:00 +7°C° 0.7 mm 3 m/s 737 mmHg 84%
16:00 +6°C° 0.7 mm 2 m/s 737 mmHg 84%
17:00 +4°C° 0.1 mm 3 m/s 737 mmHg 85%
18:00 +4°C° 0.1 mm 3 m/s 737 mmHg 85%
19:00 +3°C° 0.1 mm 3 m/s 737 mmHg 86%
20:00 +3°C° 0.2 mm 3 m/s 737 mmHg 89%
21:00 +2°C° 0.2 mm 3 m/s 737 mmHg 92%
22:00 +2°C° 0.2 mm 3 m/s 737 mmHg 95%
23:00 +3°C° 0 mm 2 m/s 737 mmHg 94%

Depois de amanhã, 24 Janeiro, Domingo

Tempo Temperatura Precipitação Vento Pressão Humidade
00:00 +3°C° 0 mm 2 m/s 737 mmHg 94%
01:00 +4°C° 0 mm 1 m/s 737 mmHg 94%
02:00 +4°C° 0 mm 1 m/s 736 mmHg 94%
03:00 +3°C° 0 mm 1 m/s 736 mmHg 94%
04:00 +2°C° 0 mm 2 m/s 736 mmHg 94%
05:00 +2°C° 0.3 mm 2 m/s 736 mmHg 95%
06:00 +2°C° 0.3 mm 2 m/s 737 mmHg 95%
07:00 +2°C° 0.3 mm 2 m/s 737 mmHg 96%
08:00 +1°C° 0.1 mm 3 m/s 737 mmHg 96%
09:00 0°C° 0.1 mm 4 m/s 738 mmHg 95%
10:00 -1°C° 0.1 mm 4 m/s 738 mmHg 95%
11:00 0°C° 0 mm 4 m/s 738 mmHg 91%
12:00 0°C° 0 mm 4 m/s 738 mmHg 87%
13:00 0°C° 0 mm 4 m/s 739 mmHg 84%
14:00 +1°C° 0 mm 4 m/s 739 mmHg 81%
15:00 +2°C° 0 mm 3 m/s 739 mmHg 79%
16:00 +2°C° 0 mm 3 m/s 739 mmHg 76%
17:00 +1°C° 0 mm 3 m/s 740 mmHg 79%
18:00 +2°C° 0 mm 2 m/s 740 mmHg 82%
19:00 +1°C° 0 mm 2 m/s 740 mmHg 85%
20:00 +1°C° 0 mm 2 m/s 740 mmHg 84%
21:00 0°C° 0 mm 3 m/s 740 mmHg 84%
22:00 0°C° 0 mm 3 m/s 740 mmHg 84%
23:00 -1°C° 0 mm 3 m/s 740 mmHg 84%

25 Janeiro, Segunda-feira

Tempo Temperatura Precipitação Vento Pressão Humidade
00:00 -1°C° 0 mm 2 m/s 740 mmHg 84%
01:00 -1°C° 0 mm 2 m/s 740 mmHg 84%
02:00 -1°C° 0 mm 3 m/s 740 mmHg 81%
03:00 -2°C° 0 mm 4 m/s 740 mmHg 79%
04:00 -2°C° 0 mm 5 m/s 739 mmHg 76%
05:00 -2°C° 0 mm 5 m/s 739 mmHg 78%
06:00 -3°C° 0 mm 6 m/s 740 mmHg 80%
07:00 -3°C° 0 mm 6 m/s 740 mmHg 82%
08:00 -3°C° 0 mm 6 m/s 740 mmHg 79%
09:00 -2°C° 0 mm 7 m/s 740 mmHg 77%
10:00 -1°C° 0 mm 7 m/s 741 mmHg 75%
11:00 -1°C° 0 mm 8 m/s 741 mmHg 71%
12:00 0°C° 0 mm 9 m/s 741 mmHg 67%
13:00 +1°C° 0 mm 9 m/s 741 mmHg 63%
14:00 0°C° 0 mm 9 m/s 742 mmHg 66%
15:00 -1°C° 0 mm 8 m/s 742 mmHg 68%
16:00 -1°C° 0 mm 7 m/s 743 mmHg 71%
17:00 -2°C° 0 mm 7 m/s 743 mmHg 72%
18:00 -2°C° 0 mm 6 m/s 744 mmHg 74%
19:00 -3°C° 0 mm 6 m/s 745 mmHg 75%
20:00 -2°C° 0 mm 5 m/s 745 mmHg 75%
21:00 -2°C° 0 mm 5 m/s 746 mmHg 75%
22:00 -2°C° 0 mm 5 m/s 746 mmHg 76%
23:00 -4°C° 0 mm 5 m/s 746 mmHg 77%

26 Janeiro, Terça-feira

Tempo Temperatura Precipitação Vento Pressão Humidade
00:00 -4°C° 0 mm 5 m/s 747 mmHg 78%
01:00 -4°C° 0 mm 5 m/s 747 mmHg 79%
02:00 -3°C° 0 mm 4 m/s 747 mmHg 79%
03:00 -3°C° 0 mm 4 m/s 748 mmHg 80%
04:00 -3°C° 0 mm 4 m/s 748 mmHg 81%
05:00 -3°C° 0 mm 4 m/s 748 mmHg 81%
06:00 -3°C° 0 mm 4 m/s 748 mmHg 81%
07:00 -2°C° 0 mm 3 m/s 748 mmHg 82%
08:00 -2°C° 0.2 mm 4 m/s 749 mmHg 82%
09:00 -2°C° 0.2 mm 4 m/s 749 mmHg 83%
10:00 -1°C° 0.2 mm 5 m/s 749 mmHg 83%
11:00 0°C° 0.1 mm 5 m/s 749 mmHg 82%
12:00 0°C° 0.1 mm 5 m/s 749 mmHg 80%
13:00 0°C° 0.1 mm 5 m/s 749 mmHg 78%
14:00 0°C° 0 mm 4 m/s 749 mmHg 79%
15:00 0°C° 0 mm 4 m/s 749 mmHg 80%
16:00 0°C° 0 mm 3 m/s 750 mmHg 81%
17:00 -1°C° 0 mm 3 m/s 750 mmHg 83%
18:00 -1°C° 0 mm 3 m/s 751 mmHg 85%
19:00 -2°C° 0 mm 3 m/s 751 mmHg 87%
20:00 -2°C° 0 mm 3 m/s 751 mmHg 87%
21:00 -2°C° 0 mm 3 m/s 752 mmHg 86%
22:00 -4°C° 0 mm 3 m/s 752 mmHg 85%
23:00 -3°C° 0 mm 2 m/s 752 mmHg 85%

27 Janeiro, Quarta-feira

Tempo Temperatura Precipitação Vento Pressão Humidade
00:00 -3°C° 0 mm 2 m/s 752 mmHg 86%
01:00 -3°C° 0 mm 2 m/s 752 mmHg 86%
02:00 -3°C° 0 mm 2 m/s 752 mmHg 87%
03:00 -3°C° 0 mm 2 m/s 751 mmHg 87%
04:00 -3°C° 0 mm 2 m/s 751 mmHg 88%
05:00 -3°C° 0 mm 2 m/s 751 mmHg 87%
06:00 -2°C° 0 mm 2 m/s 751 mmHg 86%
07:00 -2°C° 0 mm 2 m/s 750 mmHg 85%
08:00 -1°C° 0 mm 2 m/s 750 mmHg 79%
09:00 0°C° 0 mm 3 m/s 750 mmHg 73%
10:00 +1°C° 0 mm 3 m/s 750 mmHg 67%
11:00 0°C° 0 mm 4 m/s 750 mmHg 64%
12:00 +1°C° 0 mm 4 m/s 749 mmHg 60%
13:00 +3°C° 0 mm 4 m/s 749 mmHg 57%
14:00 +1°C° 0.1 mm 4 m/s 749 mmHg 68%
15:00 0°C° 0.1 mm 4 m/s 748 mmHg 79%
16:00 0°C° 0.1 mm 3 m/s 748 mmHg 90%
17:00 0°C° 0.6 mm 3 m/s 748 mmHg 91%
18:00 0°C° 0.6 mm 3 m/s 748 mmHg 93%
19:00 0°C° 0.6 mm 3 m/s 748 mmHg 94%
20:00 -1°C° 0.6 mm 4 m/s 749 mmHg 94%
21:00 0°C° 0.6 mm 4 m/s 749 mmHg 94%
22:00 +1°C° 0.6 mm 5 m/s 749 mmHg 94%
23:00 +1°C° 0.2 mm 6 m/s 749 mmHg 93%
Mostrar mais

Necessitamos do seu Consentimento

A Meteoprog e os seus Fornecedores de Serviços podem armazenar e aceder a dados pessoais como cookies, identificadores do dispositivo ou outras tecnologias semelhantes existentes no seu dispositivo e processar estes dados para personalizar conteúdos e anúncios, assim como funcionalidades nas redes sociais e análise de tráfego.

  • Armazenar e/ou aceder a informações no seu dispositivo

    Os cookies, identificadores do dispositivo ou outras informações podem ser armazenados ou acedidos no seu dispositivo, para os fins acima indicados.

  • Anúncios e conteúdos personalizados, medição de anúncios e conteúdos, dados sobre o público-alvo e desenvolvimento de produtos

    Os anúncios e os conteúdos podem ser personalizados com base num perfil. Podem ser adicionados dados adicionais para uma maior personalização dos anúncios e dos conteúdos. A eficácia dos anúncios e dos conteúdos pode ser medida. Podem ser obtidas informações sobre o público que visualizou os anúncios e os conteúdos. Estes dados podem ser usados para desenvolver ou melhorar sistemas, softwares ou a experiência do utilizador.

Ao clicar em "Eu concordo”, permitirá o uso de cookies, identificadores do dispositivo e web beacons mencionados ou outras tecnologias semelhantes. As configurações do navegador do seu dispositivo podem ser alteradas.

Para certos fins, podem ser invocados interesses legítimos ao invés de consentimento. Pode ler mais informação sobre este assunto na nossa Política de Privacidade e Cookies.